Change the Weather History Date:

Tuesday, September 17, 2013

  Actual Average Record
Temperature  
Mean Temperature 52 °F -  
Max Temperature 55 °F 53 °F 70 °F (1954)
Min Temperature 48 °F 43 °F 32 °F (2003)
Degree Days  
Heating Degree Days 14    
Growing Degree Days 2 (Base 50)    
Moisture  
Dew Point 44 °F    
Average Humidity 74    
Maximum Humidity 83    
Minimum Humidity 64    
Precipitation  
Precipitation 0.00 in - - ()
Sea Level Pressure  
Sea Level Pressure 29.46 in    
Wind  
Wind Speed 8 mph (NNE)    
Max Wind Speed 14 mph    
Max Gust Speed 18 mph    
Visibility 10 miles    
Events Rain    
Averages and records for this station are not official NWS values.
T = Trace of Precipitation, MM = Missing Value Source: NWS Daily Summary

Daily Weather History Graph

Daily Weather History Graph

Search for Another Location

Airport or City:

Trip Planner

Search our weather history database for the weather conditions in past years. The results will help you decide how hot, cold, wet, or windy it might be!

Date:

Astronomy

Sep. 17, 2013 Rise Set
Actual Time 7:31 AM AKDT 8:11 PM AKDT
Civil Twilight 6:48 AM AKDT 8:53 PM AKDT
Nautical Twilight 5:57 AM AKDT 9:44 PM AKDT
Astronomical Twilight 4:59 AM AKDT 10:41 PM AKDT
Moon 7:12 PM AKDT (9/17) 5:18 AM AKDT (9/17)
Length of Visible Light 14h 04m
Length of Day
12h 40m
Waxing Gibbous, 96% of the Moon is Illuminated
Sep 17
Waxing Gibbous
Sep 19
Full
Sep 26
Last Quarter
Oct 4
New
Oct 11
First Quarter

Hourly Weather History & Observations

Time (AKDT) Temp. Dew Point Humidity Pressure Visibility Wind Dir Wind Speed Gust Speed Precip Events Conditions
12:53 AM 51.1 °F 41.0 °F 68% 29.47 in 10.0 mi NNE 9.2 mph - N/A   Overcast
1:53 AM 51.1 °F 41.0 °F 68% 29.46 in 10.0 mi North 9.2 mph - N/A   Overcast
2:53 AM 51.1 °F 41.0 °F 68% 29.46 in 10.0 mi North 5.8 mph - N/A   Overcast
3:53 AM 51.1 °F 42.1 °F 71% 29.45 in 10.0 mi NE 5.8 mph - N/A   Overcast
4:53 AM 50.0 °F 42.1 °F 74% 29.45 in 10.0 mi North 6.9 mph - N/A   Overcast
5:53 AM 50.0 °F 42.1 °F 74% 29.45 in 10.0 mi NNE 8.1 mph - N/A   Overcast
6:53 AM 48.9 °F 44.1 °F 83% 29.45 in 10.0 mi NNE 8.1 mph - N/A   Overcast
7:53 AM 48.9 °F 44.1 °F 83% 29.44 in 10.0 mi NNE 8.1 mph - N/A   Overcast
8:53 AM 48.9 °F 44.1 °F 83% 29.44 in 10.0 mi NNE 9.2 mph - N/A   Overcast
9:53 AM 50.0 °F 44.1 °F 80% 29.44 in 10.0 mi NNE 9.2 mph - N/A   Overcast
10:53 AM 52.0 °F 44.1 °F 74% 29.44 in 10.0 mi NNE 9.2 mph - N/A   Overcast
11:53 AM 54.0 °F 43.0 °F 66% 29.43 in 10.0 mi NNE 8.1 mph - N/A   Overcast
12:53 PM 55.0 °F 43.0 °F 64% 29.44 in 10.0 mi NNE 6.9 mph - N/A   Overcast
1:53 PM 55.0 °F 45.0 °F 69% 29.44 in 10.0 mi NNE 9.2 mph - 0.00 in   Overcast
2:53 PM 55.0 °F 44.1 °F 67% 29.44 in 10.0 mi NNE 8.1 mph - 0.00 in Rain Light Rain
3:53 PM 54.0 °F 44.1 °F 69% 29.44 in 10.0 mi North 11.5 mph - 0.00 in   Overcast
4:53 PM 55.0 °F 43.0 °F 64% 29.43 in 10.0 mi NNW 8.1 mph 18.4 mph N/A   Mostly Cloudy
5:53 PM 53.1 °F 44.1 °F 71% 29.44 in 10.0 mi North 13.8 mph 18.4 mph N/A   Overcast
6:53 PM 52.0 °F 45.0 °F 77% 29.46 in 10.0 mi North 9.2 mph - 0.00 in Rain Light Rain
7:53 PM 51.1 °F 46.0 °F 83% 29.47 in 10.0 mi North 8.1 mph - 0.00 in   Overcast
8:53 PM 52.0 °F 45.0 °F 77% 29.48 in 10.0 mi Variable 5.8 mph - N/A   Overcast
9:53 PM 51.1 °F 45.0 °F 80% 29.49 in 10.0 mi North 6.9 mph - N/A   Overcast
10:53 PM 51.1 °F 45.0 °F 80% 29.50 in 10.0 mi NNE 6.9 mph - N/A   Overcast
11:53 PM 50.0 °F 45.0 °F 83% 29.51 in 10.0 mi NNE 8.1 mph - N/A   Overcast